TOPSWRTT 000
TTAA00 KICT 222312

Wichita AWIPS Roundup
National Weather Service Wichita KS
600 PM CDT MON SEP 22 2014

....Central Kansas....
  
CITY           SKY/WX    TMP DP  RH WIND       PRES   REMARKS
RUSSELL        MOSUNNY   74  47  38 SE13      30.16F                  
SALINA         MOSUNNY   76  48  37 SE10      30.18F                  
GREAT BEND     MOSUNNY   79  43  27 SE13G18   30.16F                  
ELLSWORTH      SUNNY     72  50  46 SE8       30.17F                  
MCPHERSON      SUNNY     73  46  38 SE6       30.18F                  
HAYS           PTSUNNY   77  45  31 SE15      30.15F                  

....South Central Kansas....
  
CITY           SKY/WX    TMP DP  RH WIND       PRES   REMARKS
HUTCHINSON     MOSUNNY   77  45  32 SE5       30.18F                  
NEWTON         SUNNY     75  43  31 S8        30.21F                  
KINGMAN        SUNNY     79  45  29 SE7       30.17F                  
WICHITA (ICT)  MOSUNNY   78  45  30 SE7       30.18F                  
JABARA ARPT    SUNNY     76  44  32 SE8       30.19F                  
MCCONNELL AFB  SUNNY     77  42  28 E8        30.19F                  
EL DORADO      FAIR      75  43  31 SE6       30.20S                  
HARPER           N/A     77  43  29 SE8       30.20S                  
WELLINGTON     SUNNY     79  46  31 E8        30.19F                  
WINFIELD       SUNNY     75  49  39 SE9       30.20F                  
 
....Southeast Kansas....
  
CITY           SKY/WX    TMP DP  RH WIND       PRES   REMARKS
EUREKA         SUNNY     73  52  46 SE6       30.21S                  
CHANUTE        MOSUNNY   71  54  54 SE5       30.22F                  
PARSONS        MOSUNNY   74  53  48 VRB3      30.22F                  
COFFEYVILLE    SUNNY     73  53  49 E6        30.20F                  
INDEPENDENCE   SUNNY     72  50  46 E6        30.21F                  
FORT SCOTT     SUNNY     72  55  56 E5        30.21S                  
PITTSBURG      MOSUNNY   73  55  51 CALM      30.22S                  

....Western Kansas....
  
CITY           SKY/WX    TMP DP  RH WIND       PRES   REMARKS
GOODLAND       LGT RAIN  71  54  54 S25G37    30.08F                  
HILL CITY      PTSUNNY   77  44  30 SE13      30.14F                  
LIBERAL        PTSUNNY   79  48  34 SE16      30.18F                  
GARDEN CITY    PTSUNNY   75  46  35 S14G25    30.15F                  
DODGE CITY     MOSUNNY   78  43  28 S21       30.17F                  
PRATT          MOSUNNY   77  36  22 S10       30.19F                  
MEDICINE LODGE   N/A     77  42  28 S8        30.17F                  

....Northeast Kansas....
  
CITY           SKY/WX    TMP DP  RH WIND       PRES   REMARKS
CONCORDIA      MOSUNNY   70  48  45 S8        30.18F                  
TOPEKA         MOSUNNY   74  51  44 E6        30.22S                  
MANHATTAN      MOSUNNY   73  49  42 S9        30.20F                  
LAWRENCE       MOSUNNY   73  50  44 SE3       30.22F                  
OLATHE         SUNNY     71  51  49 SE6       30.22F                  
EMPORIA        MOSUNNY   71  51  49 E6        30.21F                  

....Oklahoma....
  
CITY           SKY/WX    TMP DP  RH WIND       PRES   REMARKS
GAGE           SUNNY     79  49  34 S10       30.18F                  
PONCA CITY     SUNNY     77  44  30 E10       30.18F                  
BARTLESVILLE   SUNNY     73  52  47 E6        30.21F                  
TULSA          MOSUNNY   77  50  38 E8        30.18F                  
OKLAHOMA CITY  MOSUNNY   79  47  32 E8        30.17F                  

Note: "fair" indicates few or no clouds below 12,000 feet with no
significant weather and/or obstructions to visibility.
  

USA.gov is the U.S. government's official web portal to all federal, state and local government web resources and services.